User: anonymous   Login
Location: Huntsville
(41.2590°N, 111.7678°W)
Time: 08:09:26
(UTC+00:00)
Language:

deb Explorer IX - Orbit

View from above orbital plane
View from above orbital plane
View from above satellite
View from above satellite

Ground track
Ground track

The orbit data is extracted from the following two-line orbital elements,

1    85U 61004C   22263.96922690  .00004640  00000-0  88590-3 0  9999
2    85  38.7694 113.8485 0373208 261.9876  93.8373 14.27986687 48704
Epoch (UTC): 20 September 2022 23:15:41
Eccentricity: 0.0373208
inclination: 38.7694°
perigee height: 530 km
apogee height: 1066 km
right ascension of ascending node: 113.8485°
argument of perigee: 261.9876°
revolutions per day: 14.27986687
mean anomaly at epoch: 93.8373°
orbit number at epoch: 4870

The dashed part of the orbit path shows where the satellite is in the earth's shadow,  

DLR